GW1367 Weather Reports


time (UTC)temp
C
wind
direction
speed
KPH
gust
KPH
rain 1hr
cm
rain 24hr
cm
rain mn
cm
humidity
%
barometer
mb
20260505130204 18 166 0.0 0.0 0.00 0.03 0.03 92 1050.8
20260505123706 17 85 0.0 0.0 0.00 0.03 0.03 96 1059.6
20260505123205 17 85 0.0 0.0 0.00 0.03 0.03 97 1059.6
20260505122706 16 57 0.0 0.0 0.00 0.03 0.03 97 1059.7
20260505122205 16 57 0.0 0.0 0.00 0.03 0.03 97 1059.5
20260505121705 16 57 0.0 0.0 0.00 0.03 0.03 97 1059.2
20260505121205 16 57 0.0 0.0 0.00 0.03 0.03 97 1058.7
20260505120705 16 57 0.0 0.0 0.00 0.03 0.03 97 1058.3
20260505120205 15 57 0.0 1.6 0.00 0.03 0.03 96 1057.9
20260505115706 15 45 0.0 3.2 0.00 0.03 0.03 96 1057.7
20260505115205 15 63 1.6 3.2 0.00 0.03 0.03 96 1057.5
20260505114706 15 72 0.0 0.0 0.00 0.03 0.03 96 1057.3
20260505114204 15 55 0.0 3.2 0.00 0.03 0.03 96 1056.9
20260505113205 15 159 0.0 0.0 0.00 0.03 0.03 96 1055.7
20260505111705 15 75 0.0 0.0 0.00 0.03 0.03 96 1054.9
20260505111205 15 75 0.0 0.0 0.00 0.03 0.03 95 1054.7
20260505101204 15 75 0.0 0.0 0.00 0.03 0.03 94 1052.3
20260505100705 15 75 0.0 3.2 0.00 0.03 0.03 94 1052.1
20260505100205 15 75 0.0 0.0 0.00 0.03 0.03 94 1052.1
20260505095704 15 75 0.0 0.0 0.00 0.03 0.03 94 1052.0
20260505095204 15 75 0.0 0.0 0.00 0.03 0.03 94 1052.0
20260505094705 15 75 0.0 1.6 0.00 0.03 0.03 94 1051.7
20260505094205 15 74 0.0 0.0 0.00 0.03 0.03 94 1051.3
20260505093705 15 74 0.0 0.0 0.00 0.03 0.03 94 1051.3
20260505093205 15 74 0.0 0.0 0.00 0.03 0.03 94 1050.9
20260505092706 15 74 0.0 0.0 0.00 0.03 0.03 94 1051.1
20260505092204 15 74 0.0 0.0 0.00 0.03 0.03 94 1051.0
20260505091705 15 98 0.0 1.6 0.00 0.03 0.03 94 1050.5
20260505091204 15 71 0.0 0.0 0.00 0.03 0.03 94 1049.4
20260505090705 15 71 0.0 0.0 0.00 0.03 0.03 94 1048.6
20260505090205 15 71 0.0 0.0 0.00 0.03 0.03 93 1047.8
20260505085205 15 71 0.0 0.0 0.00 0.03 0.03 93 1046.6
20260505084705 15 71 0.0 0.0 0.00 0.03 0.03 93 1045.9
20260505084205 15 71 0.0 0.0 0.00 0.03 0.03 92 1045.4
20260505083705 15 71 0.0 0.0 0.00 0.03 0.03 92 1045.0
20260505083205 15 71 0.0 0.0 0.00 0.03 0.03 92 1044.5
20260505082705 15 71 0.0 0.0 0.00 0.03 0.03 92 1043.8
20260505082205 15 71 0.0 0.0 0.00 0.03 0.03 92 1043.6
20260505081705 15 71 0.0 0.0 0.00 0.03 0.03 92 1043.2
20260505081204 15 71 0.0 0.0 0.00 0.03 0.03 92 1043.1
20260505080205 15 70 0.0 0.0 0.00 0.03 0.03 92 1042.6
20260505075705 15 96 0.0 1.6 0.00 0.03 0.03 92 1041.8
20260505075205 15 18 0.0 1.6 0.00 0.03 0.03 92 1040.9
20260505074705 15 53 0.0 1.6 0.00 0.03 0.03 91 1039.9
20260505074205 15 220 0.0 0.0 0.00 0.03 0.03 91 1038.9
20260505073705 15 170 0.0 1.6 0.00 0.03 0.03 91 1038.4
20260505072705 15 170 0.0 1.6 0.00 0.03 0.03 90 1036.0
20260505071705 15 90 0.0 0.0 0.00 0.03 0.03 90 1033.3
20260505071205 15 90 0.0 1.6 0.00 0.03 0.03 89 1032.0
20260505070705 15 173 0.0 0.0 0.00 0.03 0.03 89 1031.2
20260505070205 15 173 0.0 1.6 0.00 0.03 0.03 89 1030.3
20260505064704 16 72 0.0 1.6 0.00 0.03 0.03 87 1025.3
20260505064204 16 71 0.0 0.0 0.00 0.03 0.03 87 1024.8
20260505063704 16 71 0.0 1.6 0.00 0.03 0.03 87 1024.4
20260505063205 16 88 0.0 1.6 0.00 0.03 0.03 87 1023.5
20260505062705 16 80 0.0 3.2 0.00 0.03 0.03 86 1021.8
20260505062204 16 66 0.0 1.6 0.00 0.03 0.03 86 1021.5
20260505061705 16 49 0.0 1.6 0.00 0.03 0.03 86 1021.0
20260505061205 16 37 0.0 0.0 0.00 0.03 0.03 86 1021.5
20260505060705 16 37 0.0 0.0 0.00 0.03 0.03 86 1020.9
20260505060204 16 37 0.0 1.6 0.00 0.03 0.03 85 1020.0
20260505055704 16 38 0.0 1.6 0.00 0.03 0.03 84 1019.1
20260505055205 16 49 0.0 0.0 0.00 0.03 0.03 84 1018.4
20260505054705 16 53 0.0 1.6 0.00 0.03 0.03 83 1018.1
20260505054204 17 139 0.0 0.0 0.00 0.03 0.03 83 1018.1
20260505053704 17 139 0.0 0.0 0.00 0.03 0.03 82 1017.6
20260505053205 17 139 0.0 0.0 0.00 0.03 0.03 82 1017.6
20260505052704 17 139 0.0 0.0 0.00 0.05 0.03 82 1017.4
20260505051705 17 139 0.0 0.0 0.00 0.05 0.03 81 1017.2
20260505051205 17 139 0.0 0.0 0.00 0.05 0.03 80 1017.2
20260505050705 17 139 0.0 0.0 0.00 0.05 0.03 80 1017.2
20260505050205 17 139 0.0 0.0 0.00 0.05 0.03 79 1016.9
20260505041704 18 118 0.0 0.0 0.00 0.03 0.03 75 1015.6
20260505040704 18 118 0.0 4.8 0.00 0.03 0.03 74 1015.1
20260505040205 18 122 0.0 3.2 0.00 0.03 0.03 73 1015.2
20260505035704 19 270 0.0 0.0 0.00 0.03 0.03 73 1015.1
20260505035205 19 116 0.0 4.8 0.00 0.03 0.03 72 1014.9
20260505034205 19 70 0.0 3.2 0.00 0.03 0.03 72 1014.5
20260505033704 19 118 0.0 3.2 0.00 0.03 0.03 72 1014.7
20260505033204 19 101 0.0 1.6 0.00 0.03 0.03 71 1014.6
20260505032704 19 102 0.0 3.2 0.00 0.03 0.03 70 1014.4
20260505032205 19 144 0.0 8.0 0.00 0.03 0.03 70 1014.4
20260505031705 19 103 0.0 8.0 0.00 0.03 0.03 70 1014.3
20260505031204 19 105 0.0 1.6 0.00 0.03 0.03 69 1014.3
20260505030704 19 181 0.0 1.6 0.00 0.03 0.03 69 1014.1
20260505030205 19 112 0.0 1.6 0.00 0.03 0.03 69 1014.1
20260505025705 19 110 0.0 3.2 0.00 0.03 0.03 69 1013.9
20260505025204 19 105 0.0 0.0 0.00 0.03 0.03 68 1013.9
20260505024704 19 105 0.0 1.6 0.00 0.03 0.03 68 1013.7
20260505024205 19 104 0.0 3.2 0.00 0.03 0.03 68 1013.7
20260505023705 19 192 0.0 4.8 0.00 0.03 0.03 68 1013.7
20260505023205 19 214 0.0 3.2 0.00 0.03 0.03 67 1013.5
20260505022704 19 308 0.0 1.6 0.00 0.03 0.03 67 1013.5
20260505022206 19 107 0.0 3.2 0.00 0.03 0.03 67 1013.3
20260505021704 19 108 0.0 3.2 0.00 0.03 0.03 69 1013.8
20260505021205 19 277 0.0 0.0 0.00 0.03 0.03 68 1013.5
20260505020704 19 277 0.0 0.0 0.00 0.03 0.03 67 1013.4
20260505020204 20 277 1.6 4.8 0.00 0.03 0.03 66 1013.1
20260505015705 20 216 0.0 1.6 0.00 0.03 0.03 65 1012.9
20260505015205 20 0 0.0 0.0 0.00 0.03 0.03 65 1012.7
20260505014704 20 0 0.0 0.0 0.00 0.03 0.03 64 1012.6
20260505013705 20 0 0.0 1.6 0.00 0.03 0.03 62 1012.4
20260505010705 22 131 0.0 1.6 0.00 0.03 0.03 58 1011.7
20260505010204 22 292 0.0 1.6 0.00 0.03 0.03 57 1011.9
20260505005705 22 255 0.0 1.6 0.00 0.03 0.03 56 1011.9
20260505005204 22 281 0.0 4.8 0.00 0.03 0.03 54 1011.7
20260505004205 23 273 0.0 3.2 0.00 0.03 0.03 52 1011.7
20260505003705 23 267 0.0 4.8 0.00 0.03 0.03 52 1011.7
20260505003205 23 57 0.0 0.0 0.00 0.03 0.03 52 1011.7
20260505002705 23 106 0.0 3.2 0.00 0.03 0.03 51 1011.9
20260505002204 24 273 1.6 3.2 0.00 0.03 0.03 51 1012.1
20260505001705 24 272 1.6 8.0 0.00 0.03 0.03 49 1012.0
20260505001204 25 283 0.0 4.8 0.00 0.03 0.03 49 1012.0
20260505000704 25 283 0.0 3.2 0.00 0.03 0.03 49 1012.1
20260504235704 25 270 0.0 4.8 0.00 0.03 0.03 48 1012.3
20260504235205 25 258 1.6 8.0 0.00 0.03 0.03 48 1012.4
20260504234704 25 243 1.6 8.0 0.00 0.03 0.03 47 1012.4
20260504234204 25 271 3.2 9.7 0.00 0.03 0.03 47 1012.2
20260504233205 26 124 0.0 3.2 0.00 0.03 0.03 45 1012.2
20260504232205 26 257 3.2 11.3 0.00 0.03 0.03 43 1012.4
20260504231704 26 104 1.6 11.3 0.00 0.03 0.03 43 1012.4
20260504231204 26 99 1.6 9.7 0.00 0.03 0.03 43 1012.4
20260504230205 27 267 4.8 12.9 0.00 0.03 0.03 41 1012.5
20260504225704 27 273 1.6 9.7 0.00 0.03 0.03 41 1012.5
20260504224705 27 282 3.2 12.9 0.00 0.03 0.03 43 1012.6
20260504224204 27 250 3.2 8.0 0.00 0.03 0.03 42 1012.7
20260504223704 27 255 1.6 8.0 0.00 0.03 0.03 42 1012.7
20260504222704 27 280 1.6 9.7 0.00 0.03 0.03 43 1012.8
20260504222204 27 101 1.6 4.8 0.00 0.03 0.03 42 1012.8
20260504221704 27 203 4.8 12.9 0.00 0.03 0.03 43 1012.8
20260504221204 28 256 3.2 9.7 0.00 0.03 0.03 44 1012.9
20260504220704 28 288 0.0 8.0 0.00 0.03 0.03 42 1012.9
20260504215704 27 290 1.6 4.8 0.00 0.03 0.03 44 1013.1
20260504215205 27 245 1.6 9.7 0.00 0.03 0.03 44 1013.0
20260504214705 27 135 3.2 12.9 0.00 0.03 0.03 46 1013.1
20260504214204 27 276 4.8 12.9 0.00 0.03 0.03 45 1013.2
20260504213704 27 137 3.2 9.7 0.00 0.03 0.03 46 1013.1
20260504212704 27 249 1.6 14.5 0.00 0.03 0.03 45 1013.1
20260504212205 27 243 1.6 4.8 0.00 0.03 0.03 42 1013.1
20260504211204 28 132 1.6 4.8 0.00 0.03 0.03 42 1013.2
20260504210704 27 100 1.6 12.9 0.00 0.03 0.03 44 1013.4
20260504210204 27 247 1.6 11.3 0.00 0.03 0.03 43 1013.4
20260504205704 27 109 1.6 4.8 0.00 0.03 0.03 43 1013.5
20260504205205 27 291 4.8 12.9 0.00 0.03 0.03 42 1013.7
20260504204704 27 152 3.2 8.0 0.00 0.03 0.03 44 1013.9
20260504203704 27 231 4.8 16.1 0.00 0.03 0.03 44 1013.9
20260504203204 27 110 1.6 11.3 0.00 0.03 0.03 44 1013.9
20260504202704 27 132 3.2 8.0 0.00 0.03 0.03 43 1014.0
20260504202204 27 270 3.2 11.3 0.00 0.03 0.03 45 1014.2
20260504201704 27 323 4.8 14.5 0.00 0.03 0.03 46 1014.3
20260504201204 26 268 3.2 14.5 0.00 0.03 0.03 48 1014.2
20260504195705 27 301 3.2 12.9 0.00 0.03 0.03 46 1014.3
20260504194204 27 268 1.6 11.3 0.00 0.03 0.03 42 1014.7
20260504193704 27 270 6.4 16.1 0.00 0.03 0.03 44 1014.8
20260504193204 27 200 3.2 20.9 0.00 0.03 0.03 45 1014.9
20260504192704 27 143 3.2 11.3 0.00 0.03 0.03 44 1015.0
20260504192204 27 200 4.8 9.7 0.00 0.03 0.03 42 1015.0
20260504191204 27 86 3.2 11.3 0.00 0.03 0.03 44 1015.2
20260504190705 27 118 3.2 8.0 0.00 0.03 0.03 43 1015.2
20260504190204 26 143 3.2 12.9 0.00 0.03 0.03 43 1015.3
20260504185704 26 255 4.8 12.9 0.00 0.03 0.03 45 1015.3
20260504185204 26 129 3.2 11.3 0.00 0.03 0.03 48 1015.3
20260504184704 27 267 3.2 12.9 0.00 0.03 0.03 45 1015.2
20260504184204 27 268 1.6 11.3 0.00 0.03 0.03 45 1015.2
20260504183704 26 20 3.2 9.7 0.00 0.03 0.03 44 1015.4
20260504183204 26 116 1.6 8.0 0.00 0.03 0.03 47 1015.6
20260504182705 27 274 4.8 16.1 0.00 0.03 0.03 43 1015.5
20260504182205 27 270 1.6 8.0 0.00 0.03 0.03 42 1015.6
20260504181705 27 126 3.2 12.9 0.00 0.03 0.03 46 1015.7
20260504181206 27 71 3.2 9.7 0.00 0.03 0.03 42 1015.8
20260504180705 26 250 1.6 11.3 0.00 0.03 0.03 47 1015.9
20260504180205 27 278 1.6 11.3 0.00 0.03 0.03 45 1016.0
20260504175705 27 41 1.6 8.0 0.00 0.03 0.03 45 1016.0
20260504175207 27 230 1.6 9.7 0.00 0.03 0.03 45 1016.0
20260504174706 27 109 1.6 9.7 0.00 0.03 0.03 42 1016.1
20260504174205 26 146 3.2 11.3 0.00 0.03 0.03 42 1016.1
20260504173705 26 261 0.0 8.0 0.00 0.03 0.03 44 1016.2
20260504171705 26 185 1.6 11.3 0.00 0.03 0.03 45 1016.4
20260504171205 26 126 3.2 12.9 0.00 0.03 0.03 44 1016.4
20260504170705 26 153 3.2 12.9 0.00 0.03 0.03 50 1016.5
20260504170204 26 152 3.2 9.7 0.00 0.03 0.03 44 1016.3
20260504160205 25 135 1.6 9.7 0.00 0.03 0.03 43 1016.8
20260504150705 23 239 1.6 12.9 0.00 0.03 0.03 55 1017.2
20260504150205 23 187 1.6 9.7 0.00 0.03 0.03 58 1017.3
20260504141205 21 266 3.2 8.0 0.00 0.03 0.03 65 1017.7
20260504140705 21 179 0.0 4.8 0.00 0.03 0.03 68 1018.2
20260504140206 21 270 3.2 8.0 0.00 0.03 0.03 66 1017.4